Location: Colonia Mina de C?rbuni
(46.1667°N, 22.7167°E)
Time: 12:04:12
(UTC+00:00)

deb Explorer IX - Pass Details

Date: 16 April 2024
Orbit: 512 x 891 km, 38.7° (Epoch: 23 May)

Event Time Altitude Azimuth Distance (km) Brightness Sun altitude
Rises 10:56:54 0° 222° (SW) 3,483 ? 53.7°
Reaches altitude 10° 10:59:51 10° 211° (SSW) 2,567 ? 53.6°
Maximum altitude 11:04:51 26° 157° (SSE) 1,700 ? 53.4°
Drops below altitude 10° 11:09:49 10° 103° (ESE) 2,550 ? 53.2°
Sets 11:12:44 0° 91° (E) 3,456 ? 53.0°
